Date String (YYYY-MM-DD hh:mm:ss) UTC,Instrument flags,absolute air pressure of the measurement (hPa),sample flow rate (lpm),inlet stack bypass flow (lpm),air temperature of the measurement (°C),ambient temperature measured by the external sensor (°C),aerosol sample conditioner tube jacket temperature (°C),OPC LED temperature (°C),internal box temperature (°C),relative humidity of the measurement (%),span deviation,mass concentration of particles derived from Lorenz-Mie calculation of OPC scattering (μg/m³),mass concentration of particles derived from Lorenz-Mie calculation of OPC scattering (μg/m³),mass concentration of particles derived from Lorenz-Mie calculation of OPC scattering (μg/m³)
DateTimeUTC,F1_M11,P_M11,Q1_M11,Q2_M11,T1_M11,T2_M11,T3_M11,T4_M11,T5_M11,U1_M11,ZSPAN_M11,X2_M11,X0_M11,X1_M11
2023-09-15 05:00:00,SystemResetWarning,0836.6,5.00,000.00,028.3,027.0,000.0,036.8,029.9,32.2,0000.0,0002.05,0003.31,0001.45
2023-09-15 05:01:00,SystemResetWarning,0836.6,5.01,000.00,028.3,027.0,000.0,036.8,029.9,32.2,0000.0,0002.06,0003.16,0001.45
2023-09-15 05:02:00,SystemResetWarning,0836.6,5.01,000.00,028.3,027.0,000.0,036.8,029.9,32.1,0000.0,0002.04,0003.06,0001.46
2023-09-15 05:03:00,SystemResetWarning,0836.6,5.00,000.00,028.3,027.0,000.0,036.8,029.9,32.1,0000.0,0002.06,0003.10,0001.47
2023-09-15 05:04:00,SystemResetWarning,0836.6,5.00,000.00,028.4,027.0,000.0,036.8,029.9,32.1,0000.0,0002.11,0003.14,0001.48
2023-09-15 05:05:00,SystemResetWarning,0836.6,5.00,000.00,028.4,027.0,000.0,036.8,029.9,32.0,0000.0,0002.09,0003.05,0001.49
2023-09-15 05:06:00,SystemResetWarning,0836.6,5.00,000.00,028.4,027.0,000.0,036.8,030.0,31.9,0000.0,0002.10,0003.05,0001.50
2023-09-15 05:07:00,SystemResetWarning,0836.6,5.00,000.00,028.4,027.0,000.0,036.8,029.9,31.9,0000.0,0002.10,0003.00,0001.52
2023-09-15 05:08:00,SystemResetWarning,0836.6,5.00,000.00,028.4,027.0,000.0,036.8,030.0,32.0,0000.0,0002.08,0002.92,0001.54
2023-09-15 05:09:00,SystemResetWarning,0836.6,5.00,000.00,028.4,027.1,000.0,036.8,030.0,32.0,0000.0,0002.05,0002.80,0001.56
2023-09-15 05:10:00,SystemResetWarning,0836.6,5.01,000.00,028.4,027.1,000.0,036.8,030.0,31.9,0000.0,0002.05,0002.78,0001.58
2023-09-15 05:11:00,SystemResetWarning,0836.6,5.01,000.00,028.4,027.1,000.0,036.8,030.0,31.9,0000.0,0002.09,0002.82,0001.63
2023-09-15 05:12:00,SystemResetWarning,0836.6,5.00,000.00,028.4,027.1,000.0,036.8,030.0,31.9,0000.0,0002.08,0002.76,0001.66
2023-09-15 05:13:00,SystemResetWarning,0836.6,4.99,000.00,028.4,027.1,000.0,036.8,030.0,31.9,0000.0,0002.12,0002.82,0001.70
2023-09-15 05:14:00,SystemResetWarning,0836.6,5.00,000.00,028.4,027.1,000.0,036.8,030.0,32.0,0000.0,0002.11,0002.78,0001.71
2023-09-15 05:15:00,SystemResetWarning,0836.6,5.00,000.00,028.4,027.1,000.0,036.8,030.0,31.9,0000.0,0002.10,0002.78,0001.75
2023-09-15 05:16:00,SystemResetWarning,0836.6,5.00,000.00,028.4,027.1,000.0,036.8,030.0,31.9,0000.0,0002.16,0002.87,0001.79
2023-09-15 05:17:00,SystemResetWarning,0836.7,5.00,000.00,028.4,027.1,000.0,036.8,030.0,31.8,0000.0,0002.22,0003.00,0001.83
2023-09-15 05:18:00,SystemResetWarning,0836.6,5.00,000.00,028.4,027.1,000.0,036.8,030.0,32.0,0000.0,0002.25,0003.07,0001.85
2023-09-15 05:19:00,SystemResetWarning,0836.6,5.00,000.00,028.4,027.1,000.0,036.9,030.0,31.9,0000.0,0002.24,0003.10,0001.86
2023-09-15 05:20:00,SystemResetWarning,0836.7,5.00,000.00,028.4,027.1,000.0,036.9,030.1,31.8,0000.0,0002.24,0003.10,0001.87
2023-09-15 05:21:00,SystemResetWarning,0836.7,5.01,000.00,028.4,027.1,000.0,036.9,030.1,31.8,0000.0,0002.27,0003.19,0001.88
2023-09-15 05:22:00,SystemResetWarning,0836.7,5.01,000.00,028.4,027.1,000.0,036.9,030.0,31.8,0000.0,0002.23,0003.09,0001.88
2023-09-15 05:23:00,SystemResetWarning,0836.6,5.00,000.00,028.5,027.1,000.0,036.9,030.0,31.7,0000.0,0002.25,0003.13,0001.89
2023-09-15 05:24:00,SystemResetWarning,0836.6,4.99,000.00,028.5,027.1,000.0,036.9,030.0,31.6,0000.0,0002.29,0003.21,0001.90
2023-09-15 05:25:00,SystemResetWarning,0836.6,4.99,000.00,028.5,027.1,000.0,036.9,030.0,31.6,0000.0,0002.33,0003.28,0001.93
2023-09-15 05:26:00,SystemResetWarning,0836.6,5.00,000.00,028.4,027.1,000.0,036.9,030.0,31.6,0000.0,0002.34,0003.28,0001.93
2023-09-15 05:27:00,SystemResetWarning,0836.6,5.01,000.00,028.4,027.0,000.0,036.9,030.0,31.6,0000.0,0002.35,0003.32,0001.93
2023-09-15 05:28:00,SystemResetWarning,0836.6,4.99,000.00,028.4,026.9,000.0,036.9,029.9,31.7,0000.0,0002.30,0003.22,0001.92
2023-09-15 05:29:00,SystemResetWarning,0836.6,4.99,000.00,028.3,026.8,000.0,036.8,029.9,31.8,0000.0,0002.25,0003.17,0001.89
2023-09-15 05:30:00,SystemResetWarning,0836.6,5.00,000.00,028.3,026.8,000.0,036.8,029.9,32.0,0000.0,0002.29,0003.18,0001.91
2023-09-15 05:31:00,SystemResetWarning,0836.6,5.01,000.00,028.3,026.8,000.0,036.8,029.9,32.0,0000.0,0002.32,0003.26,0001.92
2023-09-15 05:32:00,SystemResetWarning,0836.6,4.99,000.00,028.3,026.8,000.0,036.8,029.9,32.0,0000.0,0002.34,0003.46,0001.91
2023-09-15 05:33:00,SystemResetWarning,0836.6,5.00,000.00,028.3,026.7,000.0,036.8,029.9,32.0,0000.0,0002.38,0003.64,0001.92
2023-09-15 05:34:00,SystemResetWarning,0836.6,5.00,000.00,028.3,026.8,000.0,036.8,029.9,32.1,0000.0,0002.41,0003.74,0001.93
2023-09-15 05:35:00,SystemResetWarning,0836.6,5.00,000.00,028.3,026.8,000.0,036.8,029.9,32.0,0000.0,0002.37,0004.05,0001.92
2023-09-15 05:36:00,SystemResetWarning,0836.6,5.00,000.00,028.3,026.8,000.0,036.8,029.9,32.0,0000.0,0002.33,0003.96,0001.89
2023-09-15 05:37:00,SystemResetWarning,0836.6,5.00,000.00,028.3,026.8,000.0,036.8,029.9,32.0,0000.0,0002.29,0003.85,0001.88
2023-09-15 05:38:00,SystemResetWarning,0836.6,4.99,000.00,028.3,026.8,000.0,036.8,029.9,32.0,0000.0,0002.23,0003.70,0001.87
2023-09-15 05:39:00,SystemResetWarning,0836.6,5.00,000.00,028.3,026.8,000.0,036.8,029.8,31.9,0000.0,0002.27,0004.09,0001.86
2023-09-15 05:40:00,SystemResetWarning,0836.6,5.01,000.00,028.3,026.8,000.0,036.8,029.9,32.0,0000.0,0002.32,0004.21,0001.88
2023-09-15 05:41:00,SystemResetWarning,0836.6,5.01,000.00,028.3,026.8,000.0,036.8,029.8,32.0,0000.0,0002.33,0004.24,0001.88
2023-09-15 05:42:00,SystemResetWarning,0836.6,5.00,000.00,028.3,026.8,000.0,036.8,029.8,32.0,0000.0,0002.32,0004.28,0001.85
2023-09-15 05:43:00,SystemResetWarning,0836.6,4.99,000.00,028.3,026.8,000.0,036.8,029.9,31.9,0000.0,0002.31,0004.16,0001.83
2023-09-15 05:44:00,SystemResetWarning,0836.5,5.00,000.00,028.3,026.8,000.0,036.8,029.9,31.8,0000.0,0002.26,0003.96,0001.80
2023-09-15 05:45:00,SystemResetWarning,0836.6,5.00,000.00,028.2,026.8,000.0,036.8,029.8,31.8,0000.0,0002.24,0003.93,0001.76
2023-09-15 05:46:00,SystemResetWarning,0836.5,5.01,000.00,028.2,026.8,000.0,036.8,029.8,31.8,0000.0,0002.23,0003.71,0001.75
2023-09-15 05:47:00,SystemResetWarning,0836.5,5.00,000.00,028.2,026.8,000.0,036.8,029.8,31.8,0000.0,0002.22,0003.58,0001.72
2023-09-15 05:48:00,SystemResetWarning,0836.6,4.99,000.00,028.2,026.8,000.0,036.8,029.8,31.8,0000.0,0002.22,0003.62,0001.70
2023-09-15 05:49:00,SystemResetWarning,0836.5,4.99,000.00,028.3,026.8,000.0,036.8,029.8,31.9,0000.0,0002.19,0003.62,0001.67
2023-09-15 05:50:00,SystemResetWarning,0836.5,5.00,000.00,028.3,026.9,000.0,036.8,029.8,31.9,0000.0,0002.14,0003.31,0001.65
2023-09-15 05:51:00,SystemResetWarning,0836.5,4.99,000.00,028.3,026.9,000.0,036.8,029.9,31.9,0000.0,0002.09,0003.05,0001.62
2023-09-15 05:52:00,SystemResetWarning,0836.5,5.00,000.00,028.3,026.9,000.0,036.8,029.9,31.9,0000.0,0002.02,0002.97,0001.58
2023-09-15 05:53:00,SystemResetWarning,0836.5,5.01,000.00,028.3,026.9,000.0,036.8,029.9,31.9,0000.0,0001.98,0002.86,0001.55
2023-09-15 05:54:00,SystemResetWarning,0836.4,5.01,000.00,028.3,026.9,000.0,036.8,029.9,32.0,0000.0,0001.92,0002.74,0001.53
2023-09-15 05:55:00,SystemResetWarning,0836.4,5.00,000.00,028.3,026.9,000.0,036.8,029.8,31.9,0000.0,0001.88,0002.68,0001.51
2023-09-15 05:56:00,SystemResetWarning,0836.5,5.00,000.00,028.3,026.9,000.0,036.8,029.8,31.9,0000.0,0001.82,0002.57,0001.49
2023-09-15 05:57:00,SystemResetWarning,0836.5,5.00,000.00,028.3,026.9,000.0,036.8,029.8,31.9,0000.0,0001.78,0002.48,0001.45
2023-09-15 05:58:00,SystemResetWarning,0836.5,5.00,000.00,028.3,026.9,000.0,036.8,029.8,32.0,0000.0,0001.75,0002.41,0001.44
2023-09-15 05:59:00,SystemResetWarning,0836.5,5.00,000.00,028.3,026.9,000.0,036.8,029.9,32.0,0000.0,0001.74,0002.44,0001.43
